Weather History for KDKK - October, 2012

Change the Weather History Date:

Monday, October 1, 2012

  Actual Average (WUND) Record (WUND)
Temperature  
Mean Temperature 54 °F -  
Max Temperature 63 °F - - (-1)
Min Temperature 45 °F - - (-1)
Degree Days  
Heating Degree Days 12    
Growing Degree Days 4 (Base 50)    
Moisture  
Dew Point 46 °F    
Average Humidity 74    
Maximum Humidity 93    
Minimum Humidity 50    
Precipitation  
Precipitation 0.00 in - - ()
Sea Level Pressure  
Sea Level Pressure 29.91 in    
Wind  
Wind Speed 6 mph (SW)    
Max Wind Speed 13 mph    
Max Gust Speed 20 mph    
Visibility 10 miles    
Events      
Averages and records for this station are not official NWS values.
T = Trace of Precipitation, MM = Missing Value Source: NWS Daily Summary

Daily Weather History Graph

Daily Weather History Graph

Search for Another Location

Airport or City:

Trip Planner

Search our weather history database for the weather conditions in past years. The results will help you decide how hot, cold, wet, or windy it might be!

Date:

Astronomy

Oct. 01, 2012 Rise Set
Actual Time 7:14 AM EDT 6:57 PM EDT
Civil Twilight 6:46 AM EDT 7:25 PM EDT
Nautical Twilight 6:14 AM EDT 7:58 PM EDT
Astronomical Twilight 5:41 AM EDT 8:31 PM EDT
Moon 7:30 PM EDT 8:45 AM EDT
Length of Visible Light 12h 39m
Length of Day
11h 42m
Full, 98% of the Moon is Illuminated
Oct 1
Full
Oct 8
Last Quarter
Oct 15
New
Oct 21
First Quarter
Oct 29
Full

Hourly Weather History & Observations

Time (EDT) Temp. Windchill Dew Point Humidity Pressure Visibility Wind Dir Wind Speed Gust Speed Precip Events Conditions
12:53 AM 55.0 °F - 45.0 °F 69% 29.90 in 10.0 mi NW 4.6 mph - N/A   Clear
1:53 AM 55.0 °F - 44.1 °F 67% 29.89 in 10.0 mi NW 6.9 mph - N/A   Clear
2:53 AM 55.0 °F - 46.0 °F 72% 29.88 in 10.0 mi WNW 4.6 mph - N/A   Clear
3:53 AM 55.0 °F - 45.0 °F 69% 29.88 in 10.0 mi WNW 6.9 mph - N/A   Clear
4:53 AM 45.0 °F 42.6 °F 43.0 °F 93% 29.88 in 10.0 mi SSW 4.6 mph - N/A   Clear
6:53 AM 48.0 °F - 44.1 °F 86% 29.91 in 10.0 mi SSW 4.6 mph - N/A   Partly Cloudy
7:32 AM 48.2 °F - 44.6 °F 87% 29.91 in 10.0 mi SSW 5.8 mph - N/A   Mostly Cloudy
7:53 AM 50.0 °F - 46.0 °F 86% 29.92 in 10.0 mi SSW 4.6 mph - N/A   Mostly Cloudy
8:35 AM 53.6 °F - 46.4 °F 77% 29.92 in 10.0 mi SSW 9.2 mph - N/A   Scattered Clouds
8:53 AM 54.0 °F - 46.9 °F 77% 29.94 in 10.0 mi SSW 9.2 mph - N/A   Partly Cloudy
9:20 AM 53.6 °F - 46.4 °F 77% 29.94 in 10.0 mi SSW 10.4 mph - N/A   Mostly Cloudy
9:53 AM 55.0 °F - 48.0 °F 77% 29.95 in 10.0 mi SSW 8.1 mph - N/A   Overcast
10:53 AM 57.9 °F - 50.0 °F 75% 29.94 in 10.0 mi SW 12.7 mph 19.6 mph N/A   Overcast
11:53 AM 61.0 °F - 48.0 °F 62% 29.94 in 10.0 mi West 6.9 mph 19.6 mph N/A   Overcast
12:53 PM 62.1 °F - 43.0 °F 50% 29.94 in 10.0 mi West 11.5 mph 19.6 mph N/A   Overcast
1:53 PM 62.1 °F - 46.9 °F 58% 29.94 in 10.0 mi WSW 12.7 mph 19.6 mph N/A   Partly Cloudy
4:53 PM 61.0 °F - 45.0 °F 56% 29.91 in 10.0 mi WNW 3.5 mph - N/A   Clear
6:53 PM 57.0 °F - 48.0 °F 72% 29.91 in 10.0 mi SE 3.5 mph - N/A   Clear
7:53 PM 54.0 °F - 48.9 °F 83% 29.92 in 10.0 mi Calm Calm - N/A   Clear
8:53 PM 53.1 °F - 48.0 °F 83% 29.92 in 10.0 mi Calm Calm - N/A   Clear
9:53 PM 53.1 °F - 46.9 °F 80% 29.91 in 10.0 mi ESE 6.9 mph - N/A   Clear
10:53 PM 53.1 °F - 46.0 °F 77% 29.90 in 10.0 mi NE 3.5 mph - N/A   Clear
11:53 PM 52.0 °F - 46.0 °F 80% 29.88 in 10.0 mi ESE 8.1 mph - N/A   Clear